User: anonymous   Login
Location: Hale Hill Observatory
(39.3806°N, 86.8431°W)
Time: 09:22:43
(UTC-05:00)
Language:

Cosmos 990 Rocket - Orbit

View from above orbital plane
View from above orbital plane
View from above satellite
View from above satellite

Ground track
Ground track

The orbit data is extracted from the following two-line orbital elements,

1 10677U 78019B   16342.22351827  .00000061  00000-0  27602-4 0  9990
2 10677  74.0383 296.0721 0014106  54.6274 305.6196 14.39995753 34861
Epoch (UTC): 07 December 2016 05:21:51
Eccentricity: 0.0014106
inclination: 74.0383°
perigee height: 748 km
apogee height: 768 km
right ascension of ascending node: 296.0721°
argument of perigee: 54.6274°
revolutions per day: 14.39995753
mean anomaly at epoch: 305.6196°
orbit number at epoch: 3486

The dashed part of the orbit path shows where the satellite is in the earth's shadow,  

DLR